This is the latest recevied weather packets stored in our database for station/object KC8JWT. If no packets are shown the sender has not sent any weather packets the latest 10 day(s).
| Time | Temp. | Humidity | Pressure | Rain* | Wind** | Luminosity | Snow |
|---|---|---|---|---|---|---|---|
| 1777665212 | 11.11° C | 87% | 1013.2 hPa | 0 mm | - | 48 W/m² | - |
| 1777664909 | 11.67° C | 86% | 1013.1 hPa | 0 mm | - | 75 W/m² | - |
| 1777664605 | 11.67° C | 86% | 1013.2 hPa | 0 mm | - | 68 W/m² | - |
| 1777664301 | 11.67° C | 86% | 1013.1 hPa | 0 mm | - | 86 W/m² | - |
| 1777664000 | 12.22° C | 84% | 1013 hPa | 0 mm | - | 78 W/m² | - |
| 1777663697 | 12.78° C | 85% | 1012.9 hPa | 0 mm | - | 226 W/m² | - |
| 1777663394 | 12.78° C | 83% | 1012.9 hPa | 0 mm | - | 71 W/m² | - |
| 1777663091 | 12.78° C | 84% | 1012.9 hPa | 0 mm | - | 127 W/m² | - |
| 1777662789 | 12.78° C | 85% | 1012.8 hPa | 0 mm | - | 228 W/m² | - |
| 1777662485 | 12.22° C | 85% | 1012.6 hPa | 0 mm | - | 142 W/m² | - |
| 1777662181 | 11.67° C | 85% | 1012.7 hPa | 0 mm | - | 112 W/m² | - |
| 1777661876 | 12.22° C | 85% | 1012.8 hPa | 0 mm | - | 55 W/m² | - |
| 1777661573 | 12.22° C | 84% | 1012.9 hPa | 0 mm | - | 49 W/m² | - |
| 1777661269 | 12.22° C | 84% | 1012.6 hPa | 0 mm | - | 74 W/m² | - |
| 1777660964 | 12.78° C | 83% | 1012.6 hPa | 1.78 mm | - | 123 W/m² | - |
| 1777660660 | 12.78° C | 81% | 1012.6 hPa | 1.78 mm | - | 187 W/m² | - |
| 1777660358 | 12.78° C | 79% | 1012.3 hPa | 0 mm | - | 189 W/m² | - |
| 1777660054 | 12.78° C | 79% | 1012.2 hPa | 0 mm | - | 132 W/m² | - |
| 1777659751 | 12.78° C | 74% | 1012.4 hPa | 0 mm | - | 158 W/m² | - |
| 1777659448 | 13.33° C | 71% | 1012.2 hPa | 0 mm | - | 79 W/m² | - |
| 1777659145 | 13.89° C | 68% | 1012.2 hPa | 0 mm | - | 46 W/m² | - |
| 1777658843 | 14.44° C | 63% | 1011.9 hPa | 0 mm | - | 75 W/m² | - |
| 1777658538 | 15° C | 63% | 1011.7 hPa | 0 mm | - | 62 W/m² | - |
| 1777658235 | 15° C | 61% | 1011.9 hPa | 0 mm | - | 55 W/m² | - |
| 1777657933 | 15.56° C | 60% | 1011.8 hPa | 0 mm | - | 72 W/m² | - |
* Rain latest hour (hover to see other rain measurements)
** Current wind speed in m/s (hover to see current wind gust speed)